Back to catalog

PW-6U

AliveScienceSSO
NORAD 66760·PAYLOAD·🇯🇵 Japan
This satellite name has not been confirmed by official sources yet.

Launched Nov 28, 2025 from Vandenberg Space Force Base

Loading…

Next Passes (next 24 hours)

TLE

FreshSource: Space-Track

Epoch: Sep 14, 2026, 08:29 UTC

1 66760U 25276CY  26257.35415093  .00003753  00000-0  17259-3 0  9994
2 66760  97.4114 329.6251 0001446  70.8666 289.2726 15.20952997 43988

Track PW-6U in real time with AllMySat

Download on the App Store